This is the latest recevied weather packets stored in our database for station/object KI4MRC. If no packets are shown the sender has not sent any weather packets the latest 10 day(s).
| Time | Temp. | Humidity | Pressure | Rain* | Wind** | Luminosity | Snow |
|---|---|---|---|---|---|---|---|
| 1778066531 | 21.67° C | 99% | 1016.1 hPa | 0 mm | - | 50 W/m² | - |
| 1778066228 | 21.67° C | 99% | 1016 hPa | 0 mm | - | 48 W/m² | - |
| 1778065926 | 21.67° C | 99% | 1015.8 hPa | 0 mm | - | 41 W/m² | - |
| 1778065623 | 21.11° C | 98% | 1015.8 hPa | 0 mm | - | 33 W/m² | - |
| 1778065320 | 21.11° C | 98% | 1015.7 hPa | 0 mm | - | 25 W/m² | - |
| 1778065017 | 21.11° C | 98% | 1015.6 hPa | 0 mm | - | 20 W/m² | - |
| 1778064714 | 21.11° C | 98% | 1015.7 hPa | 0 mm | - | 14 W/m² | - |
| 1778064412 | 21.11° C | 98% | 1015.8 hPa | 0 mm | - | 8 W/m² | - |
| 1778064109 | 21.11° C | 98% | 1015.6 hPa | 0 mm | - | 4 W/m² | - |
| 1778063806 | 21.11° C | 98% | 1015.5 hPa | 0 mm | - | 2 W/m² | - |
| 1778063503 | 21.11° C | 98% | 1015.6 hPa | 0 mm | - | 1 W/m² | - |
| 1778063201 | 21.11° C | 98% | 1015.6 hPa | 0 mm | - | 0 W/m² | - |
| 1778062898 | 21.11° C | 98% | 1015.5 hPa | 0 mm | - | 0 W/m² | - |
| 1778062595 | 21.11° C | 98% | 1015.5 hPa | 0 mm | - | 0 W/m² | - |
| 1778062292 | 21.11° C | 98% | 1015.7 hPa | 0 mm | - | 0 W/m² | - |
| 1778061990 | 21.11° C | 98% | 1015.5 hPa | 0 mm | - | 0 W/m² | - |
| 1778061688 | 21.11° C | 98% | 1015.5 hPa | 0 mm | - | 0 W/m² | - |
| 1778061387 | 21.11° C | 98% | 1015.4 hPa | 0 mm | - | 0 W/m² | - |
| 1778061083 | 21.11° C | 98% | 1015.4 hPa | 0 mm | - | 0 W/m² | - |
| 1778060780 | 21.11° C | 98% | 1015.2 hPa | 0 mm | - | 0 W/m² | - |
| 1778060478 | 21.11° C | 97% | 1015.3 hPa | 0 mm | - | 0 W/m² | - |
| 1778060176 | 21.11° C | 97% | 1015.4 hPa | 0 mm | - | 0 W/m² | - |
| 1778059873 | 21.11° C | 97% | 1015.2 hPa | 0 mm | - | 0 W/m² | - |
| 1778059571 | 21.67° C | 97% | 1015.1 hPa | 0 mm | - | 0 W/m² | - |
| 1778059268 | 21.11° C | 97% | 1015.3 hPa | 0 mm | - | 0 W/m² | - |
* Rain latest hour (hover to see other rain measurements)
** Current wind speed in m/s (hover to see current wind gust speed)